Location: Newark
(48.1500°N, 2.9667°W)
Time: 20:43:52
(UTC+00:00)

A-11 Canister half - Pass Details

Date: 29 January 2020
Orbit: 1524 x 1684 km, 47.3° (Epoch: 22 February)

Event Time Altitude Azimuth Distance (km) Brightness Sun altitude
Rises 16:48:56 0° 229° (SW) 4,664 13.8 1.6°
Reaches altitude 10° 16:52:01 10° 225° (SW) 3,685 12.8 1.2°
Maximum altitude 17:00:59 57° 150° (SSE) 1,777 9.4 -0.1°
Drops below altitude 10° 17:10:10 10° 76° (ENE) 3,769 10.4 -1.5°
Enters shadow 17:12:47 - 73° (ENE) 4,594 10.8 -1.9°
Sets 17:13:21 0° 72° (ENE) 4,776 - -2.0°
